TimeMDT,TemperatureF,Dew PointF,Humidity,Sea Level PressureIn,VisibilityMPH,Wind Direction,Wind SpeedMPH,Gust SpeedMPH,PrecipitationIn,Events,Conditions,WindDirDegrees,DateUTC
12:53 AM,30.0,28.0,92,29.93,10.0,South,6.9,-,N/A,,Clear,170,2013-10-31 06:53:00
1:53 AM,28.9,28.0,96,29.91,10.0,SSE,4.6,-,N/A,,Clear,160,2013-10-31 07:53:00
2:53 AM,28.0,25.0,88,29.90,10.0,West,3.5,-,N/A,,Clear,270,2013-10-31 08:53:00
3:53 AM,28.0,26.1,92,29.89,10.0,South,6.9,-,N/A,,Clear,180,2013-10-31 09:53:00
4:53 AM,28.0,26.1,92,29.87,10.0,SSE,8.1,-,N/A,,Clear,160,2013-10-31 10:53:00
5:53 AM,26.1,25.0,96,29.90,10.0,Calm,Calm,-,N/A,,Clear,0,2013-10-31 11:53:00
6:53 AM,25.0,24.1,96,29.93,10.0,SSE,4.6,-,N/A,,Clear,160,2013-10-31 12:53:00
7:53 AM,28.0,26.1,92,29.94,10.0,Calm,Calm,-,N/A,,Scattered Clouds,0,2013-10-31 13:53:00
8:53 AM,30.9,28.9,92,29.93,10.0,Variable,4.6,-,N/A,,Overcast,0,2013-10-31 14:53:00
9:53 AM,33.1,30.0,89,29.94,10.0,Variable,4.6,-,N/A,,Mostly Cloudy,0,2013-10-31 15:53:00
10:53 AM,39.0,33.1,79,29.91,10.0,Calm,Calm,-,N/A,,Clear,0,2013-10-31 16:53:00
11:53 AM,44.1,32.0,63,29.89,10.0,South,5.8,-,N/A,,Clear,180,2013-10-31 17:53:00
12:53 PM,48.9,32.0,52,29.85,10.0,Calm,Calm,-,N/A,,Mostly Cloudy,0,2013-10-31 18:53:00
1:53 PM,53.1,28.9,40,29.81,10.0,NNE,3.5,-,N/A,,Clear,30,2013-10-31 19:53:00
2:53 PM,53.1,28.9,40,29.80,10.0,NW,4.6,-,N/A,,Partly Cloudy,320,2013-10-31 20:53:00
3:53 PM,51.1,32.0,48,29.80,10.0,NNE,5.8,23.0,N/A,,Overcast,30,2013-10-31 21:53:00
4:53 PM,50.0,33.1,52,29.83,10.0,Calm,Calm,-,N/A,,Mostly Cloudy,0,2013-10-31 22:53:00
5:53 PM,48.9,34.0,56,29.85,10.0,NE,6.9,-,N/A,,Overcast,40,2013-10-31 23:53:00
6:53 PM,43.0,32.0,65,29.91,10.0,NNE,6.9,-,N/A,,Clear,20,2013-11-01 00:53:00
7:53 PM,42.1,36.0,79,29.93,10.0,NNE,5.8,-,N/A,,Overcast,20,2013-11-01 01:53:00
8:53 PM,39.0,36.0,89,29.95,10.0,SW,4.6,-,N/A,,Mostly Cloudy,220,2013-11-01 02:53:00
9:53 PM,37.9,35.1,89,29.97,10.0,SE,8.1,-,N/A,,Partly Cloudy,130,2013-11-01 03:53:00
10:53 PM,41.0,35.1,79,29.97,10.0,Variable,4.6,-,N/A,,Mostly Cloudy,0,2013-11-01 04:53:00
11:53 PM,39.9,34.0,79,29.98,10.0,WSW,3.5,-,N/A,,Overcast,250,2013-11-01 05:53:00